Flag for Saint Kitts and Nevis Weather past 2 weeks in Basseterre, Saint Kitts and Nevis

Now
86 °F

Scattered clouds.


Feels Like: 95 °F
Forecast: 81 / 84 °F
Wind: 16 mph from East

Location: Golden Rock

Current Time: Jul 1, 2015 at 1:02:59 PM

Latest Report: Jul 1, 2015 at 12:00 PM


Visibility: N/A

Pressure: 30.09 "Hg

Humidity: 70%

Dew point: 75 °F

Location of BasseterreLocation

Historic Weather in Basseterre — Graph

°F

Basseterre temperature yesterday

Maximum temperature yesterday: 86 °F (at 10:00 AM)
Minimum temperature yesterday: 79 °F (at 6:00 AM)
Average temperature yesterday: 83 °F

Past Weeks' High & Low Weather Summary

 TemperatureHumidityPressure
High90 °F (Jun 16, 2:00 PM)100% (Jun 22, 10:00 AM)30.15 "Hg (Jun 22, 10:00 AM)
Low72 °F (Jun 26, 8:00 PM)55% (Jun 25, 11:00 AM)30.01 "Hg (Jun 17, 6:00 AM)
Average83 °F73%30.09 "Hg
* Reported Jun 16 12:00 Noon — Jul 1 12:00 Noon, Basseterre, Weather by CustomWeather, © 2015

Note: Actual official high and low records may vary slightly from our data, if they occured in-between our weather recording intervals... More about our weather records

Advertising

Basseterre weather history for previous 24 hours

 ConditionsComfort  
Time TempWeatherWind HumidityBarometerVisibility
12:00 PM
Wed, Jul 1
86 °FScattered clouds.16 mph70%30.09 "HgN/A
11:00 AM86 °FScattered clouds.20 mph70%30.12 "HgN/A
10:00 AM86 °FScattered clouds.16 mph66%30.12 "HgN/A
9:00 AM84 °FScattered clouds.22 mph74%30.12 "HgN/A
8:00 AM82 °FPassing clouds.15 mph79%30.12 "HgN/A
7:00 AM81 °FScattered clouds.18 mph89%30.09 "HgN/A
6:00 AM81 °FScattered clouds.17 mph84%30.09 "HgN/A
9:00 PM
Tue, Jun 30
81 °FPassing clouds.13 mph84%30.12 "HgN/A
8:00 PM81 °FPassing clouds.12 mph79%30.09 "HgN/A
7:00 PM82 °FPassing clouds.14 mph74%30.09 "HgN/A
6:00 PM82 °FPassing clouds.15 mph79%30.07 "HgN/A
5:00 PM82 °FScattered clouds.18 mph79%30.07 "HgN/A
4:00 PM82 °FPassing clouds.13 mph79%30.07 "HgN/A
3:00 PM84 °FPassing clouds.17 mph74%30.07 "HgN/A
2:00 PM84 °FSprinkles. Scattered clouds.18 mph79%30.07 "HgN/A
1:00 PM84 °FScattered clouds.18 mph74%30.09 "HgN/A
Weather by CustomWeather, © 2015

See weather overviewHow to use our weather pages